SKW1582 KDTW-KEWR

Flight info

Callsign SKW1582
Flight time 1h 8m
Altitude 31000
Route PAVYL3 ESSBE SLT FQM3
Aircraft CRJ7/M-VGDW/C

Departure

Time 2026-05-05 21:03
Airport Detroit Metropolitan Wayne County Airport (KDTW)

Arrival

Time 2026-05-05 22:11
Airport Newark Liberty International Airport (KEWR)
Time Latitude Longitude Altitude Speed Heading
2026-05-05 20:52 42.20768 -83.36232 648 ft 0 kts 295°
2026-05-05 20:54 42.20766 -83.36224 648 ft 3 kts 295°
2026-05-05 20:54 42.20758 -83.36201 651 ft 3 kts 295°
2026-05-05 20:54 42.20749 -83.36180 650 ft 3 kts 320°
2026-05-05 20:55 42.20732 -83.36176 649 ft 3 kts 27°
2026-05-05 20:55 42.20724 -83.36189 649 ft 0 kts 76°
2026-05-05 20:56 42.20726 -83.36185 648 ft 0 kts 47°
2026-05-05 20:56 42.20770 -83.36146 648 ft 13 kts 28°
2026-05-05 20:57 42.20862 -83.36084 648 ft 17 kts 26°
2026-05-05 20:57 42.20972 -83.35995 648 ft 23 kts 31°
2026-05-05 20:57 42.21129 -83.35886 649 ft 28 kts 26°
2026-05-05 20:57 42.21305 -83.35749 648 ft 29 kts 25°
2026-05-05 20:58 42.21345 -83.35721 648 ft 1 kts 30°
2026-05-05 20:58 42.21370 -83.35703 648 ft 7 kts 29°
2026-05-05 20:58 42.21428 -83.35662 648 ft 12 kts 27°
2026-05-05 20:58 42.21503 -83.35632 647 ft 12 kts 346°
2026-05-05 20:59 42.21541 -83.35727 647 ft 1 kts 270°
2026-05-05 20:59 42.21541 -83.35728 647 ft 1 kts 270°
2026-05-05 20:59 42.21557 -83.35829 649 ft 15 kts 318°
2026-05-05 20:59 42.21700 -83.35774 645 ft 32 kts 27°
2026-05-05 21:00 42.21926 -83.35619 647 ft 33 kts 28°
2026-05-05 21:00 42.22105 -83.35480 647 ft 29 kts 29°
2026-05-05 21:00 42.22281 -83.35350 649 ft 29 kts 34°
2026-05-05 21:00 42.22414 -83.35242 648 ft 22 kts 29°
2026-05-05 21:01 42.22559 -83.35138 647 ft 25 kts 26°
2026-05-05 21:01 42.22713 -83.35017 649 ft 27 kts 28°
2026-05-05 21:01 42.22877 -83.34901 648 ft 20 kts 26°
2026-05-05 21:01 42.22977 -83.34838 648 ft 9 kts 14°
2026-05-05 21:02 42.23045 -83.34860 648 ft 12 kts 302°
2026-05-05 21:02 42.23086 -83.34971 649 ft 16 kts 278°
2026-05-05 21:02 42.23054 -83.35054 649 ft 16 kts 207°
2026-05-05 21:02 42.22783 -83.35254 648 ft 77 kts 209°
2026-05-05 21:03 42.22123 -83.35742 653 ft 134 kts 208°
2026-05-05 21:03 42.21238 -83.36363 1046 ft 143 kts 206°
2026-05-05 21:03 42.20311 -83.36807 1628 ft 152 kts 210°
2026-05-05 21:03 42.19374 -83.37706 1977 ft 180 kts 219°
2026-05-05 21:04 42.18285 -83.38798 2369 ft 209 kts 218°
2026-05-05 21:04 42.17021 -83.40030 2742 ft 236 kts 219°
2026-05-05 21:04 42.15665 -83.41316 3544 ft 242 kts 218°
2026-05-05 21:04 42.14255 -83.42608 4329 ft 248 kts 219°
2026-05-05 21:05 42.13266 -83.43409 4863 ft 254 kts 214°
2026-05-05 21:05 42.11093 -83.44817 5930 ft 265 kts 208°
2026-05-05 21:05 42.09250 -83.45178 6678 ft 288 kts 179°
2026-05-05 21:05 42.07359 -83.44032 7431 ft 315 kts 148°
2026-05-05 21:06 42.05996 -83.41608 8185 ft 339 kts 119°
2026-05-05 21:06 42.05446 -83.38472 8976 ft 351 kts 101°
2026-05-05 21:06 42.05168 -83.35190 9711 ft 358 kts 99°
2026-05-05 21:06 42.04930 -83.31797 10196 ft 370 kts 98°
2026-05-05 21:07 42.04709 -83.28298 10689 ft 381 kts 98°
2026-05-05 21:07 42.04506 -83.24958 11156 ft 391 kts 98°
2026-05-05 21:07 42.04283 -83.21271 11667 ft 400 kts 97°
2026-05-05 21:07 42.04056 -83.17509 12183 ft 406 kts 97°
2026-05-05 21:08 42.03830 -83.13695 12688 ft 411 kts 98°
2026-05-05 21:08 42.03630 -83.09841 13214 ft 417 kts 98°
2026-05-05 21:08 42.03433 -83.05915 13741 ft 425 kts 97°
2026-05-05 21:08 42.03239 -83.01915 14227 ft 432 kts 97°
2026-05-05 21:09 42.03040 -82.97854 14733 ft 439 kts 97°
2026-05-05 21:09 42.02841 -82.93728 15242 ft 444 kts 97°
2026-05-05 21:09 42.02641 -82.89560 15749 ft 449 kts 97°
2026-05-05 21:09 42.02440 -82.85346 16261 ft 454 kts 97°
2026-05-05 21:10 42.02238 -82.81096 16772 ft 457 kts 97°
2026-05-05 21:10 42.02037 -82.76810 17284 ft 460 kts 97°
2026-05-05 21:10 42.01838 -82.72503 17813 ft 463 kts 97°
2026-05-05 21:10 42.01641 -82.68165 18312 ft 465 kts 97°
2026-05-05 21:11 42.01444 -82.63812 18764 ft 467 kts 97°
2026-05-05 21:11 42.01249 -82.59448 19229 ft 469 kts 97°
2026-05-05 21:11 42.01053 -82.55121 19695 ft 470 kts 97°
2026-05-05 21:11 42.00857 -82.50729 20176 ft 471 kts 97°
2026-05-05 21:12 42.00659 -82.46337 20665 ft 471 kts 97°
2026-05-05 21:12 42.00542 -82.43677 20963 ft 470 kts 97°
2026-05-05 21:12 42.00341 -82.39146 21460 ft 470 kts 97°
2026-05-05 21:12 42.00140 -82.34766 21966 ft 469 kts 97°
2026-05-05 21:13 41.99937 -82.30396 22491 ft 468 kts 97°
2026-05-05 21:13 41.99732 -82.26038 23007 ft 466 kts 97°
2026-05-05 21:13 41.99528 -82.21701 23518 ft 464 kts 97°
2026-05-05 21:13 41.99324 -82.17384 23963 ft 462 kts 97°
2026-05-05 21:14 41.99123 -82.13092 24417 ft 459 kts 97°
2026-05-05 21:14 41.98927 -82.08822 24879 ft 456 kts 97°
2026-05-05 21:14 41.98736 -82.04582 25360 ft 453 kts 97°
2026-05-05 21:14 41.98551 -82.00369 25838 ft 450 kts 97°
2026-05-05 21:15 41.98369 -81.96188 26316 ft 446 kts 97°
2026-05-05 21:15 41.98195 -81.92041 26808 ft 442 kts 97°
2026-05-05 21:15 41.98025 -81.87936 27310 ft 437 kts 97°
2026-05-05 21:15 41.97864 -81.83883 27818 ft 432 kts 97°
2026-05-05 21:16 41.97705 -81.79843 28115 ft 433 kts 97°
2026-05-05 21:16 41.97547 -81.75797 28373 ft 435 kts 96°
2026-05-05 21:16 41.97389 -81.71725 28632 ft 437 kts 97°
2026-05-05 21:16 41.97232 -81.67643 28895 ft 438 kts 96°
2026-05-05 21:17 41.97075 -81.63549 29151 ft 439 kts 96°
2026-05-05 21:17 41.96923 -81.59594 29411 ft 440 kts 96°
2026-05-05 21:17 41.96650 -81.55330 29699 ft 435 kts 108°
2026-05-05 21:17 41.95657 -81.51592 29983 ft 418 kts 128°
2026-05-05 21:18 41.93958 -81.48572 30245 ft 394 kts 148°
2026-05-05 21:18 41.91807 -81.46579 30512 ft 366 kts 169°
2026-05-05 21:18 41.89468 -81.45744 30723 ft 338 kts 189°
2026-05-05 21:18 41.87202 -81.46013 30780 ft 326 kts 198°
2026-05-05 21:19 41.84852 -81.45853 30835 ft 356 kts 176°
2026-05-05 21:19 41.82514 -81.44405 30867 ft 387 kts 154°
2026-05-05 21:19 41.80516 -81.41813 30885 ft 414 kts 134°
2026-05-05 21:19 41.79114 -81.38338 30899 ft 437 kts 115°
2026-05-05 21:20 41.78482 -81.34285 30905 ft 453 kts 96°
2026-05-05 21:20 41.78710 -81.30036 30905 ft 463 kts 77°
2026-05-05 21:20 41.79797 -81.25982 30897 ft 464 kts 59°
2026-05-05 21:20 41.81590 -81.22400 30894 ft 462 kts 49°
2026-05-05 21:21 41.84827 -81.14872 30862 ft 473 kts 70°
2026-05-05 21:21 41.85550 -81.10571 30889 ft 474 kts 87°
2026-05-05 21:21 41.85461 -81.06168 30866 ft 472 kts 102°
2026-05-05 21:22 41.84333 -80.97641 30854 ft 476 kts 105°
2026-05-05 21:22 41.83358 -80.88590 30839 ft 483 kts 99°
2026-05-05 21:23 41.82605 -80.79650 30862 ft 488 kts 100°
2026-05-05 21:23 41.81713 -80.70585 30864 ft 493 kts 101°
2026-05-05 21:24 41.80806 -80.61430 30840 ft 498 kts 101°
2026-05-05 21:24 41.79882 -80.52203 30829 ft 502 kts 101°
2026-05-05 21:25 41.78948 -80.42897 30862 ft 505 kts 101°
2026-05-05 21:25 41.77994 -80.33528 30857 ft 509 kts 101°
2026-05-05 21:26 41.77035 -80.24177 30843 ft 512 kts 101°
2026-05-05 21:26 41.76048 -80.14657 30830 ft 513 kts 101°
2026-05-05 21:27 41.75229 -80.06777 30825 ft 514 kts 100°
2026-05-05 21:27 41.74222 -79.97148 30823 ft 514 kts 100°
2026-05-05 21:28 41.73217 -79.87674 30819 ft 514 kts 101°
2026-05-05 21:28 41.72206 -79.78195 30821 ft 514 kts 101°
2026-05-05 21:29 41.71185 -79.68723 30835 ft 515 kts 101°
2026-05-05 21:29 41.70158 -79.59242 30837 ft 515 kts 101°
2026-05-05 21:30 41.69122 -79.49749 30842 ft 516 kts 101°
2026-05-05 21:30 41.68073 -79.40255 30830 ft 516 kts 101°
2026-05-05 21:31 41.67025 -79.30818 30847 ft 517 kts 101°
2026-05-05 21:31 41.65961 -79.21307 30844 ft 518 kts 101°
2026-05-05 21:32 41.64888 -79.11783 30832 ft 518 kts 101°
2026-05-05 21:32 41.63797 -79.02197 30821 ft 519 kts 101°
2026-05-05 21:33 41.62709 -78.92664 30830 ft 519 kts 101°
2026-05-05 21:33 41.61605 -78.83120 30849 ft 520 kts 101°
2026-05-05 21:34 41.60503 -78.73618 30846 ft 521 kts 101°
2026-05-05 21:34 41.59381 -78.64036 30840 ft 522 kts 101°
2026-05-05 21:35 41.58247 -78.54446 30831 ft 522 kts 101°
2026-05-05 21:35 41.57110 -78.44871 30823 ft 522 kts 101°
2026-05-05 21:36 41.55963 -78.35302 30842 ft 522 kts 101°
2026-05-05 21:36 41.54811 -78.25718 30845 ft 523 kts 101°
2026-05-05 21:37 41.53643 -78.16137 30814 ft 523 kts 102°
2026-05-05 21:37 41.52468 -78.06522 30815 ft 522 kts 102°
2026-05-05 21:38 41.51288 -77.96957 30834 ft 522 kts 102°
2026-05-05 21:38 41.49950 -77.87446 30814 ft 522 kts 103°
2026-05-05 21:39 41.48601 -77.77945 30804 ft 521 kts 103°
2026-05-05 21:39 41.47265 -77.68518 30817 ft 521 kts 103°
2026-05-05 21:40 41.46126 -77.60576 30810 ft 520 kts 103°
2026-05-05 21:40 41.44528 -77.49469 30131 ft 529 kts 102°
2026-05-05 21:41 41.43850 -77.44745 29705 ft 510 kts 103°
2026-05-05 21:41 41.43388 -77.41626 29382 ft 500 kts 103°
2026-05-05 21:41 41.42739 -77.37194 28904 ft 487 kts 103°
2026-05-05 21:41 41.42107 -77.32820 28439 ft 475 kts 103°
2026-05-05 21:42 41.41481 -77.28544 27989 ft 465 kts 104°
2026-05-05 21:42 41.40867 -77.24363 27533 ft 455 kts 104°
2026-05-05 21:42 41.40246 -77.20147 27042 ft 446 kts 104°
2026-05-05 21:42 41.39654 -77.16124 26605 ft 438 kts 104°
2026-05-05 21:43 41.39068 -77.12170 26177 ft 431 kts 104°
2026-05-05 21:43 41.38689 -77.09595 25897 ft 426 kts 104°
2026-05-05 21:43 41.38230 -77.06524 25556 ft 421 kts 104°
2026-05-05 21:43 41.37663 -77.02729 25138 ft 415 kts 104°
2026-05-05 21:44 41.37108 -76.98986 24743 ft 409 kts 104°
2026-05-05 21:44 41.36558 -76.95293 24348 ft 404 kts 104°
2026-05-05 21:44 41.36011 -76.91643 23955 ft 399 kts 104°
2026-05-05 21:44 41.35470 -76.88041 23576 ft 395 kts 105°
2026-05-05 21:45 41.34922 -76.84476 23146 ft 391 kts 104°
2026-05-05 21:45 41.34371 -76.80943 22688 ft 387 kts 104°
2026-05-05 21:45 41.33737 -76.77480 22231 ft 383 kts 109°
2026-05-05 21:45 41.32972 -76.74104 21784 ft 379 kts 111°
2026-05-05 21:46 41.32125 -76.70795 21342 ft 376 kts 114°
2026-05-05 21:46 41.31231 -76.67531 20919 ft 374 kts 114°
2026-05-05 21:46 41.30345 -76.64284 20497 ft 373 kts 114°
2026-05-05 21:46 41.29452 -76.61039 20080 ft 375 kts 114°
2026-05-05 21:47 41.28558 -76.57764 19673 ft 377 kts 114°
2026-05-05 21:47 41.27684 -76.54514 19261 ft 379 kts 114°
2026-05-05 21:47 41.26795 -76.51191 18862 ft 381 kts 114°
2026-05-05 21:47 41.25902 -76.47871 18453 ft 382 kts 113°
2026-05-05 21:48 41.25008 -76.44539 18056 ft 384 kts 113°
2026-05-05 21:48 41.24109 -76.41192 17611 ft 385 kts 113°
2026-05-05 21:48 41.23208 -76.37838 17169 ft 386 kts 113°
2026-05-05 21:48 41.22297 -76.34480 16734 ft 386 kts 113°
2026-05-05 21:49 41.21389 -76.31122 16326 ft 387 kts 114°
2026-05-05 21:49 41.20482 -76.27765 16038 ft 384 kts 114°
2026-05-05 21:49 41.19586 -76.24464 15921 ft 376 kts 114°
2026-05-05 21:49 41.18704 -76.21235 15876 ft 368 kts 114°
2026-05-05 21:50 41.17844 -76.18079 15852 ft 359 kts 114°
2026-05-05 21:50 41.17002 -76.14995 15859 ft 352 kts 114°
2026-05-05 21:50 41.16172 -76.11968 15838 ft 351 kts 114°
2026-05-05 21:50 41.15331 -76.08900 15855 ft 357 kts 114°
2026-05-05 21:51 41.14472 -76.05777 15863 ft 363 kts 114°
2026-05-05 21:51 41.13596 -76.02605 15871 ft 369 kts 114°
2026-05-05 21:51 41.12716 -75.99388 15867 ft 373 kts 114°
2026-05-05 21:51 41.11828 -75.96133 15878 ft 377 kts 113°
2026-05-05 21:52 41.10022 -75.89534 15810 ft 384 kts 113°
2026-05-05 21:52 41.09444 -75.87433 15809 ft 389 kts 113°
2026-05-05 21:52 41.08447 -75.83836 15815 ft 407 kts 113°
2026-05-05 21:53 41.07465 -75.80295 15815 ft 423 kts 113°
2026-05-05 21:53 41.06486 -75.76544 15813 ft 439 kts 108°
2026-05-05 21:53 41.05960 -75.72491 15832 ft 455 kts 96°
2026-05-05 21:53 41.05774 -75.68189 15851 ft 467 kts 94°
2026-05-05 21:54 41.05609 -75.63902 15871 ft 476 kts 94°
2026-05-05 21:54 41.05364 -75.59565 15874 ft 469 kts 96°
2026-05-05 21:54 41.05042 -75.55289 15861 ft 464 kts 97°
2026-05-05 21:54 41.04728 -75.51060 15855 ft 459 kts 97°
2026-05-05 21:55 41.04426 -75.46873 15855 ft 455 kts 96°
2026-05-05 21:55 41.04126 -75.42725 15862 ft 451 kts 97°
2026-05-05 21:55 41.03825 -75.38604 15854 ft 448 kts 96°
2026-05-05 21:55 41.03531 -75.34512 15847 ft 445 kts 97°
2026-05-05 21:56 41.03229 -75.30439 15839 ft 443 kts 96°
2026-05-05 21:56 41.02932 -75.26392 15844 ft 441 kts 97°
2026-05-05 21:56 41.02634 -75.22365 15839 ft 439 kts 97°
2026-05-05 21:56 41.02333 -75.18354 15834 ft 437 kts 97°
2026-05-05 21:57 41.02034 -75.14350 15833 ft 436 kts 97°
2026-05-05 21:57 41.01732 -75.10400 15672 ft 424 kts 97°
2026-05-05 21:57 41.01422 -75.06597 15221 ft 414 kts 97°
2026-05-05 21:57 41.01118 -75.02718 14658 ft 409 kts 97°
2026-05-05 21:58 41.00832 -74.98986 14074 ft 406 kts 96°
2026-05-05 21:58 41.00550 -74.95279 13493 ft 403 kts 97°
2026-05-05 21:58 41.00272 -74.91598 12846 ft 400 kts 97°
2026-05-05 21:58 40.99993 -74.87954 12228 ft 396 kts 97°
2026-05-05 21:59 40.99725 -74.84345 11625 ft 392 kts 97°
2026-05-05 21:59 40.99458 -74.80773 11029 ft 387 kts 98°
2026-05-05 21:59 40.99186 -74.77248 10449 ft 382 kts 98°
2026-05-05 21:59 40.98910 -74.73764 9871 ft 377 kts 98°
2026-05-05 22:00 40.98642 -74.70336 9270 ft 372 kts 98°
2026-05-05 22:00 40.98374 -74.66959 8661 ft 366 kts 99°
2026-05-05 22:00 40.98106 -74.63631 8044 ft 361 kts 99°
2026-05-05 22:00 40.97845 -74.60351 7466 ft 356 kts 100°
2026-05-05 22:01 40.97586 -74.57122 6917 ft 350 kts 99°
2026-05-05 22:01 40.97332 -74.53957 6473 ft 342 kts 100°
2026-05-05 22:01 40.97080 -74.50871 6026 ft 334 kts 100°
2026-05-05 22:01 40.96839 -74.47848 5576 ft 327 kts 101°
2026-05-05 22:02 40.96595 -74.44889 5086 ft 320 kts 100°
2026-05-05 22:02 40.96364 -74.41984 4624 ft 316 kts 102°
2026-05-05 22:02 40.96127 -74.39197 4167 ft 314 kts 101°
2026-05-05 22:02 40.95887 -74.36258 3681 ft 309 kts 101°
2026-05-05 22:03 40.95659 -74.33448 3239 ft 305 kts 100°
2026-05-05 22:03 40.95435 -74.30717 3010 ft 293 kts 101°
2026-05-05 22:03 40.95219 -74.28095 2916 ft 281 kts 101°
2026-05-05 22:03 40.95014 -74.25579 2869 ft 269 kts 102°
2026-05-05 22:04 40.94808 -74.23166 2849 ft 258 kts 102°
2026-05-05 22:04 40.94610 -74.20854 2827 ft 248 kts 102°
2026-05-05 22:04 40.94421 -74.18629 2807 ft 238 kts 101°
2026-05-05 22:04 40.94174 -74.16508 2817 ft 229 kts 115°
2026-05-05 22:05 40.93306 -74.14864 2835 ft 215 kts 142°
2026-05-05 22:05 40.92185 -74.13592 2830 ft 210 kts 151°
2026-05-05 22:05 40.90952 -74.12572 2827 ft 207 kts 158°
2026-05-05 22:05 40.89696 -74.11654 2826 ft 206 kts 160°
2026-05-05 22:06 40.88427 -74.10771 2849 ft 206 kts 160°
2026-05-05 22:06 40.87169 -74.09887 2692 ft 200 kts 160°
2026-05-05 22:06 40.85980 -74.09013 2516 ft 190 kts 160°
2026-05-05 22:06 40.84828 -74.08167 2435 ft 189 kts 159°
2026-05-05 22:07 40.84049 -74.07707 2378 ft 181 kts 176°
2026-05-05 22:07 40.82875 -74.07863 2363 ft 167 kts 201°
2026-05-05 22:07 40.81832 -74.08363 2400 ft 148 kts 208°
2026-05-05 22:07 40.80895 -74.08889 2198 ft 145 kts 205°
2026-05-05 22:08 40.79947 -74.09371 1982 ft 148 kts 200°
2026-05-05 22:08 40.78984 -74.09765 1987 ft 137 kts 203°
2026-05-05 22:08 40.78132 -74.10191 1865 ft 126 kts 207°
2026-05-05 22:08 40.77327 -74.10638 1641 ft 125 kts 207°
2026-05-05 22:09 40.76534 -74.11080 1433 ft 124 kts 217°
2026-05-05 22:09 40.75832 -74.11767 1307 ft 127 kts 221°
2026-05-05 22:09 40.75111 -74.12487 1186 ft 134 kts 219°
2026-05-05 22:09 40.74328 -74.13161 1026 ft 134 kts 211°
2026-05-05 22:10 40.73485 -74.13740 870 ft 141 kts 211°
2026-05-05 22:10 40.72604 -74.14302 770 ft 144 kts 207°
2026-05-05 22:10 40.71772 -74.14821 576 ft 120 kts 210°
2026-05-05 22:10 40.71038 -74.15293 363 ft 116 kts 213°
2026-05-05 22:11 40.70354 -74.15758 188 ft 98 kts 214°
2026-05-05 22:11 40.69755 -74.16146 56 ft 95 kts 212°
2026-05-05 22:11 40.69254 -74.16478 22 ft 58 kts 204°
2026-05-05 22:11 40.68997 -74.16638 20 ft 32 kts 206°
2026-05-05 22:12 40.68825 -74.16773 18 ft 30 kts 219°
2026-05-05 22:12 40.68694 -74.16963 20 ft 25 kts 235°
2026-05-05 22:12 40.68629 -74.17091 21 ft 7 kts 235°
2026-05-05 22:12 40.68623 -74.17105 20 ft 0 kts 250°
2026-05-05 22:14 40.68621 -74.17126 20 ft 8 kts 269°
2026-05-05 22:14 40.68659 -74.17247 22 ft 21 kts 297°
2026-05-05 22:14 40.68730 -74.17432 23 ft 15 kts 307°
2026-05-05 22:15 40.68808 -74.17446 20 ft 12 kts 339°
2026-05-05 22:15 40.68856 -74.17534 20 ft 10 kts 296°
2026-05-05 22:15 40.68888 -74.17611 20 ft 10 kts 296°